Time,TemperatureF,DewpointF,PressureIn,WindDirection,WindDirectionDegrees,WindSpeedMPH,WindSpeedGustMPH,Humidity,HourlyPrecipIn,Conditions,Clouds,dailyrainin,SoftwareType,DateUTC
2013-04-15 00:00:00,38.2,29.0,29.03,ESE,112,6.0,8.0,68,0.00,,,0.00,Rainwise IP-100,2013-04-15 04:00:00,
2013-04-15 00:01:00,38.1,29.0,29.03,East,90,2.0,8.0,69,0.00,,,0.00,Rainwise IP-100,2013-04-15 04:01:00,
2013-04-15 00:02:00,38.1,29.0,29.03,ESE,112,4.0,8.0,68,0.00,,,0.00,Rainwise IP-100,2013-04-15 04:02:00,
2013-04-15 00:07:00,38.1,29.0,29.03,East,90,1.0,9.0,68,0.00,,,0.00,Rainwise IP-100,2013-04-15 04:07:00,
2013-04-15 00:12:00,37.9,29.0,29.03,ESE,112,4.0,7.0,68,0.00,,,0.00,Rainwise IP-100,2013-04-15 04:12:00,
2013-04-15 00:17:00,38.0,28.0,29.03,ESE,112,5.0,8.0,67,0.00,,,0.00,Rainwise IP-100,2013-04-15 04:17:00,
2013-04-15 00:22:00,38.1,28.0,29.03,ESE,112,2.0,12.0,67,0.00,,,0.00,Rainwise IP-100,2013-04-15 04:22:00,
2013-04-15 00:27:00,38.1,28.0,29.03,ESE,112,4.0,9.0,67,0.00,,,0.00,Rainwise IP-100,2013-04-15 04:27:00,
2013-04-15 00:33:00,38.0,29.0,29.03,East,90,6.0,8.0,68,0.00,,,0.00,Rainwise IP-100,2013-04-15 04:33:00,
2013-04-15 00:38:00,37.9,29.0,29.02,ESE,112,6.0,9.0,68,0.00,,,0.00,Rainwise IP-100,2013-04-15 04:38:00,
2013-04-15 00:43:00,37.9,28.0,29.02,ESE,112,7.0,9.0,66,0.00,,,0.00,Rainwise IP-100,2013-04-15 04:43:00,
2013-04-15 00:48:00,38.0,29.0,29.02,SE,135,6.0,11.0,68,0.00,,,0.00,Rainwise IP-100,2013-04-15 04:48:00,
2013-04-15 00:53:00,37.9,29.0,29.02,ESE,112,6.0,10.0,68,0.00,,,0.00,Rainwise IP-100,2013-04-15 04:53:00,
2013-04-15 00:58:00,37.8,29.0,29.02,ESE,112,6.0,10.0,68,0.00,,,0.00,Rainwise IP-100,2013-04-15 04:58:00,
2013-04-15 01:03:00,37.7,29.0,29.02,ESE,112,7.0,9.0,68,0.00,,,0.00,Rainwise IP-100,2013-04-15 05:03:00,
2013-04-15 01:08:00,37.7,29.0,29.01,ESE,112,5.0,11.0,68,0.00,,,0.00,Rainwise IP-100,2013-04-15 05:08:00,
2013-04-15 01:13:00,37.7,29.0,29.01,ESE,112,6.0,11.0,69,0.00,,,0.00,Rainwise IP-100,2013-04-15 05:13:00,
2013-04-15 01:18:00,37.8,28.0,29.01,ESE,112,6.0,12.0,67,0.00,,,0.00,Rainwise IP-100,2013-04-15 05:18:00,
2013-04-15 01:23:00,37.9,28.0,29.01,ESE,112,6.0,12.0,67,0.00,,,0.00,Rainwise IP-100,2013-04-15 05:23:00,
2013-04-15 01:28:00,37.8,29.0,29.01,ESE,112,8.0,11.0,68,0.00,,,0.00,Rainwise IP-100,2013-04-15 05:28:00,
2013-04-15 01:34:00,37.8,28.0,29.01,ESE,112,5.0,11.0,67,0.00,,,0.00,Rainwise IP-100,2013-04-15 05:34:00,
2013-04-15 01:39:00,37.9,29.0,29.01,ESE,112,4.0,12.0,68,0.00,,,0.00,Rainwise IP-100,2013-04-15 05:39:00,
2013-04-15 01:44:00,37.8,29.0,29.01,ESE,112,6.0,10.0,68,0.00,,,0.00,Rainwise IP-100,2013-04-15 05:44:00,
2013-04-15 01:49:00,37.9,28.0,29.01,ESE,112,4.0,12.0,67,0.00,,,0.00,Rainwise IP-100,2013-04-15 05:49:00,
2013-04-15 01:54:00,37.8,29.0,29.01,ESE,112,7.0,8.0,69,0.00,,,0.00,Rainwise IP-100,2013-04-15 05:54:00,
2013-04-15 01:59:00,37.7,29.0,29.01,ESE,112,7.0,11.0,69,0.00,,,0.00,Rainwise IP-100,2013-04-15 05:59:00,
2013-04-15 02:04:00,37.6,29.0,29.01,East,90,4.0,9.0,69,0.00,,,0.00,Rainwise IP-100,2013-04-15 06:04:00,
2013-04-15 02:09:00,37.6,29.0,29.01,ESE,112,3.0,10.0,69,0.00,,,0.00,Rainwise IP-100,2013-04-15 06:09:00,
2013-04-15 02:14:00,37.7,29.0,29.01,ESE,112,8.0,18.0,70,0.00,,,0.00,Rainwise IP-100,2013-04-15 06:14:00,
2013-04-15 02:19:00,37.7,29.0,29.00,ESE,112,4.0,11.0,68,0.00,,,0.00,Rainwise IP-100,2013-04-15 06:19:00,
2013-04-15 02:24:00,37.7,29.0,29.00,SE,135,5.0,12.0,69,0.00,,,0.00,Rainwise IP-100,2013-04-15 06:24:00,
2013-04-15 02:29:00,37.6,29.0,29.01,ESE,112,7.0,11.0,69,0.00,,,0.00,Rainwise IP-100,2013-04-15 06:29:00,
2013-04-15 02:35:00,37.7,29.0,29.00,ESE,112,7.0,12.0,68,0.00,,,0.00,Rainwise IP-100,2013-04-15 06:35:00,
2013-04-15 02:40:00,37.7,29.0,29.00,ESE,112,6.0,9.0,69,0.00,,,0.00,Rainwise IP-100,2013-04-15 06:40:00,
2013-04-15 02:45:00,37.7,29.0,29.00,ESE,112,6.0,9.0,70,0.00,,,0.00,Rainwise IP-100,2013-04-15 06:45:00,
2013-04-15 02:50:00,37.7,29.0,29.00,ESE,112,5.0,12.0,69,0.00,,,0.00,Rainwise IP-100,2013-04-15 06:50:00,
2013-04-15 02:55:00,37.8,29.0,29.00,ESE,112,4.0,10.0,68,0.00,,,0.00,Rainwise IP-100,2013-04-15 06:55:00,
2013-04-15 03:00:00,37.8,29.0,28.99,ESE,112,6.0,11.0,68,0.00,,,0.00,Rainwise IP-100,2013-04-15 07:00:00,
2013-04-15 03:05:00,37.8,29.0,28.99,ESE,112,5.0,11.0,68,0.00,,,0.00,Rainwise IP-100,2013-04-15 07:05:00,
2013-04-15 03:41:00,38.2,29.0,28.99,ENE,67,4.0,9.0,68,0.00,,,0.00,Rainwise IP-100,2013-04-15 07:41:00,
2013-04-15 03:43:00,37.9,29.0,28.99,ESE,112,4.0,11.0,69,0.00,,,0.00,Rainwise IP-100,2013-04-15 07:43:00,
2013-04-15 03:46:00,38.3,29.0,28.99,ENE,67,5.0,11.0,68,0.00,,,0.00,Rainwise IP-100,2013-04-15 07:46:00,
2013-04-15 03:48:00,38.1,29.0,28.99,ESE,112,8.0,8.0,69,0.00,,,0.00,Rainwise IP-100,2013-04-15 07:48:00,
2013-04-15 03:49:00,38.1,29.0,28.99,ESE,112,4.0,9.0,68,0.00,,,0.00,Rainwise IP-100,2013-04-15 07:49:00,
2013-04-15 03:55:00,38.1,29.0,28.99,East,90,6.0,7.0,68,0.00,,,0.00,Rainwise IP-100,2013-04-15 07:55:00,
2013-04-15 03:58:00,38.0,29.0,28.99,ESE,112,4.0,9.0,70,0.00,,,0.00,Rainwise IP-100,2013-04-15 07:58:00,
2013-04-15 04:03:00,38.1,29.0,28.99,SE,135,5.0,10.0,69,0.00,,,0.00,Rainwise IP-100,2013-04-15 08:03:00,
2013-04-15 04:08:00,38.1,29.0,28.99,East,90,5.0,10.0,69,0.00,,,0.00,Rainwise IP-100,2013-04-15 08:08:00,
2013-04-15 04:13:00,38.1,29.0,28.99,ESE,112,7.0,10.0,69,0.00,,,0.00,Rainwise IP-100,2013-04-15 08:13:00,
2013-04-15 04:19:00,38.1,29.0,28.99,ESE,112,8.0,12.0,69,0.00,,,0.00,Rainwise IP-100,2013-04-15 08:19:00,
2013-04-15 04:24:00,38.2,29.0,28.99,ESE,112,6.0,9.0,70,0.00,,,0.00,Rainwise IP-100,2013-04-15 08:24:00,
2013-04-15 04:29:00,38.1,29.0,28.99,ESE,112,5.0,8.0,69,0.00,,,0.00,Rainwise IP-100,2013-04-15 08:29:00,
2013-04-15 04:35:00,38.2,29.0,28.99,East,90,1.0,10.0,70,0.00,,,0.00,Rainwise IP-100,2013-04-15 08:35:00,
2013-04-15 04:38:00,38.2,29.0,29.00,ESE,112,1.0,8.0,70,0.00,,,0.00,Rainwise IP-100,2013-04-15 08:38:00,
2013-04-15 04:40:00,38.2,29.0,29.00,ENE,67,4.0,8.0,71,0.00,,,0.00,Rainwise IP-100,2013-04-15 08:40:00,
2013-04-15 04:43:00,38.3,29.0,29.00,East,90,2.0,9.0,70,0.00,,,0.00,Rainwise IP-100,2013-04-15 08:43:00,
2013-04-15 04:45:00,38.3,29.0,29.00,ESE,112,5.0,9.0,70,0.00,,,0.00,Rainwise IP-100,2013-04-15 08:45:00,
2013-04-15 04:46:00,38.4,29.0,29.00,ESE,112,4.0,9.0,70,0.00,,,0.00,Rainwise IP-100,2013-04-15 08:46:00,
2013-04-15 04:52:00,38.3,31.0,29.00,ENE,67,1.0,9.0,72,0.00,,,0.00,Rainwise IP-100,2013-04-15 08:52:00,
2013-04-15 04:57:00,38.3,29.0,29.00,ESE,112,2.0,7.0,71,0.00,,,0.00,Rainwise IP-100,2013-04-15 08:57:00,
2013-04-15 05:02:00,38.4,29.0,29.00,NNE,22,2.0,8.0,70,0.00,,,0.00,Rainwise IP-100,2013-04-15 09:02:00,
2013-04-15 05:08:00,38.5,31.0,29.00,ESE,112,1.0,8.0,70,0.00,,,0.00,Rainwise IP-100,2013-04-15 09:08:00,
2013-04-15 05:13:00,38.5,31.0,29.00,ESE,112,2.0,7.0,72,0.00,,,0.00,Rainwise IP-100,2013-04-15 09:13:00,
2013-04-15 05:18:00,38.6,31.0,29.00,ESE,112,1.0,6.0,72,0.00,,,0.00,Rainwise IP-100,2013-04-15 09:18:00,
2013-04-15 05:24:00,38.6,31.0,29.00,East,90,1.0,6.0,72,0.00,,,0.00,Rainwise IP-100,2013-04-15 09:24:00,
2013-04-15 05:29:00,38.8,31.0,29.00,ESE,112,6.0,7.0,71,0.00,,,0.00,Rainwise IP-100,2013-04-15 09:29:00,
2013-04-15 05:34:00,38.8,31.0,29.01,East,90,1.0,8.0,72,0.00,,,0.00,Rainwise IP-100,2013-04-15 09:34:00,
2013-04-15 05:40:00,38.8,32.0,29.00,ESE,112,1.0,6.0,73,0.00,,,0.00,Rainwise IP-100,2013-04-15 09:40:00,
2013-04-15 05:45:00,38.8,32.0,29.00,East,90,4.0,5.0,73,0.00,,,0.00,Rainwise IP-100,2013-04-15 09:45:00,
2013-04-15 05:50:00,38.8,32.0,29.00,ENE,67,2.0,8.0,73,0.00,,,0.00,Rainwise IP-100,2013-04-15 09:50:00,
2013-04-15 05:55:00,38.8,32.0,29.00,East,90,4.0,7.0,73,0.00,,,0.00,Rainwise IP-100,2013-04-15 09:55:00,
2013-04-15 06:00:00,38.9,32.0,29.00,East,90,4.0,6.0,73,0.00,,,0.00,Rainwise IP-100,2013-04-15 10:00:00,
2013-04-15 06:05:00,38.8,32.0,28.99,East,90,2.0,6.0,74,0.00,,,0.00,Rainwise IP-100,2013-04-15 10:05:00,
2013-04-15 06:10:00,38.8,32.0,28.99,East,90,2.0,7.0,73,0.00,,,0.00,Rainwise IP-100,2013-04-15 10:10:00,
2013-04-15 06:15:00,38.8,32.0,28.99,East,90,2.0,7.0,74,0.00,,,0.00,Rainwise IP-100,2013-04-15 10:15:00,
2013-04-15 06:20:00,38.9,32.0,28.99,ESE,112,6.0,7.0,74,0.00,,,0.00,Rainwise IP-100,2013-04-15 10:20:00,
2013-04-15 06:25:00,39.1,32.0,28.99,ESE,112,4.0,12.0,74,0.00,,,0.00,Rainwise IP-100,2013-04-15 10:25:00,
2013-04-15 06:30:00,39.2,32.0,28.99,East,90,4.0,7.0,74,0.00,,,0.00,Rainwise IP-100,2013-04-15 10:30:00,
2013-04-15 06:35:00,39.3,32.0,28.99,SE,135,4.0,11.0,73,0.00,,,0.00,Rainwise IP-100,2013-04-15 10:35:00,
2013-04-15 06:41:00,39.4,32.0,28.99,East,90,4.0,10.0,73,0.00,,,0.00,Rainwise IP-100,2013-04-15 10:41:00,
2013-04-15 06:46:00,39.6,32.0,28.99,ESE,112,3.0,11.0,73,0.00,,,0.00,Rainwise IP-100,2013-04-15 10:46:00,
2013-04-15 06:52:00,39.6,33.0,28.99,ENE,67,4.0,7.0,74,0.00,,,0.00,Rainwise IP-100,2013-04-15 10:52:00,
2013-04-15 06:57:00,39.7,32.0,28.99,ENE,67,7.0,7.0,73,0.00,,,0.00,Rainwise IP-100,2013-04-15 10:57:00,
2013-04-15 07:03:00,39.9,32.0,28.99,ESE,112,4.0,7.0,73,0.00,,,0.00,Rainwise IP-100,2013-04-15 11:03:00,
2013-04-15 07:08:00,40.1,32.0,28.99,East,90,4.0,9.0,73,0.00,,,0.00,Rainwise IP-100,2013-04-15 11:08:00,
2013-04-15 07:13:00,40.1,32.0,29.00,East,90,3.0,6.0,73,0.00,,,0.00,Rainwise IP-100,2013-04-15 11:13:00,
2013-04-15 07:19:00,40.2,32.0,29.00,ENE,67,4.0,7.0,73,0.00,,,0.00,Rainwise IP-100,2013-04-15 11:19:00,
2013-04-15 07:24:00,40.2,32.0,29.00,East,90,2.0,7.0,73,0.00,,,0.00,Rainwise IP-100,2013-04-15 11:24:00,
2013-04-15 07:29:00,40.1,33.0,29.00,East,90,4.0,6.0,74,0.00,,,0.00,Rainwise IP-100,2013-04-15 11:29:00,
2013-04-15 07:34:00,39.9,32.0,29.00,East,90,2.0,7.0,73,0.00,,,0.00,Rainwise IP-100,2013-04-15 11:34:00,
2013-04-15 07:40:00,39.9,33.0,29.01,ENE,67,2.0,6.0,74,0.00,,,0.00,Rainwise IP-100,2013-04-15 11:40:00,
2013-04-15 07:45:00,39.9,33.0,29.01,ESE,112,1.0,6.0,74,0.00,,,0.00,Rainwise IP-100,2013-04-15 11:45:00,
2013-04-15 07:50:00,40.3,32.0,29.01,SE,135,5.0,12.0,73,0.00,,,0.00,Rainwise IP-100,2013-04-15 11:50:00,
2013-04-15 07:55:00,40.5,33.0,29.02,ESE,112,2.0,9.0,72,0.00,,,0.00,Rainwise IP-100,2013-04-15 11:55:00,
2013-04-15 08:00:00,40.6,33.0,29.02,ESE,112,6.0,9.0,72,0.00,,,0.00,Rainwise IP-100,2013-04-15 12:00:00,
2013-04-15 08:05:00,40.8,33.0,29.02,ESE,112,6.0,10.0,72,0.00,,,0.00,Rainwise IP-100,2013-04-15 12:05:00,
2013-04-15 08:10:00,40.9,33.0,29.02,ESE,112,2.0,9.0,72,0.00,,,0.00,Rainwise IP-100,2013-04-15 12:10:00,
2013-04-15 08:15:00,41.1,33.0,29.02,ESE,112,4.0,6.0,73,0.00,,,0.00,Rainwise IP-100,2013-04-15 12:15:00,
2013-04-15 08:20:00,41.3,33.0,29.02,ESE,112,4.0,7.0,73,0.00,,,0.00,Rainwise IP-100,2013-04-15 12:20:00,
2013-04-15 08:25:00,41.6,33.0,29.02,ESE,112,2.0,7.0,72,0.00,,,0.00,Rainwise IP-100,2013-04-15 12:25:00,
2013-04-15 08:30:00,42.8,35.0,29.03,ESE,112,2.0,7.0,72,0.00,,,0.00,Rainwise IP-100,2013-04-15 12:30:00,
2013-04-15 08:35:00,43.2,33.0,29.04,ESE,112,8.0,10.0,69,0.00,,,0.00,Rainwise IP-100,2013-04-15 12:35:00,
2013-04-15 08:41:00,43.4,35.0,29.04,East,90,4.0,10.0,70,0.00,,,0.00,Rainwise IP-100,2013-04-15 12:41:00,
2013-04-15 08:46:00,43.8,33.0,29.05,ESE,112,6.0,12.0,67,0.00,,,0.00,Rainwise IP-100,2013-04-15 12:46:00,
2013-04-15 08:51:00,44.5,36.0,29.05,ESE,112,7.0,11.0,70,0.00,,,0.00,Rainwise IP-100,2013-04-15 12:51:00,
2013-04-15 08:59:00,44.5,36.0,29.05,ESE,112,6.0,9.0,70,0.00,,,0.00,Rainwise IP-100,2013-04-15 12:59:00,
2013-04-15 09:06:00,45.2,35.0,29.05,ESE,112,7.0,8.0,68,0.00,,,0.00,Rainwise IP-100,2013-04-15 13:06:00,
2013-04-15 09:12:00,45.8,36.0,29.05,ESE,112,2.0,7.0,67,0.00,,,0.00,Rainwise IP-100,2013-04-15 13:12:00,
2013-04-15 09:17:00,46.7,36.0,29.05,ESE,112,5.0,8.0,67,0.00,,,0.00,Rainwise IP-100,2013-04-15 13:17:00,
2013-04-15 09:22:00,47.4,36.0,29.06,ESE,112,4.0,10.0,65,0.00,,,0.00,Rainwise IP-100,2013-04-15 13:22:00,
2013-04-15 09:27:00,47.8,37.0,29.06,ESE,112,8.0,11.0,64,0.00,,,0.00,Rainwise IP-100,2013-04-15 13:27:00,
2013-04-15 09:32:00,48.1,37.0,29.07,SE,135,6.0,11.0,64,0.00,,,0.00,Rainwise IP-100,2013-04-15 13:32:00,
2013-04-15 09:37:00,48.7,37.0,29.07,ESE,112,6.0,10.0,64,0.00,,,0.00,Rainwise IP-100,2013-04-15 13:37:00,
2013-04-15 09:43:00,49.2,38.0,29.07,East,90,4.0,10.0,66,0.00,,,0.00,Rainwise IP-100,2013-04-15 13:43:00,
2013-04-15 09:48:00,49.2,38.0,29.08,ESE,112,5.0,10.0,65,0.00,,,0.00,Rainwise IP-100,2013-04-15 13:48:00,
2013-04-15 09:53:00,50.0,37.0,29.08,SE,135,5.0,8.0,62,0.00,,,0.00,Rainwise IP-100,2013-04-15 13:53:00,
2013-04-15 09:58:00,50.2,37.0,29.08,ESE,112,4.0,9.0,62,0.00,,,0.00,Rainwise IP-100,2013-04-15 13:58:00,
2013-04-15 10:03:00,50.5,39.0,29.09,SE,135,5.0,9.0,64,0.00,,,0.00,Rainwise IP-100,2013-04-15 14:03:00,
2013-04-15 10:08:00,50.8,38.0,29.09,SE,135,5.0,8.0,61,0.00,,,0.00,Rainwise IP-100,2013-04-15 14:08:00,
2013-04-15 10:13:00,51.6,40.0,29.09,ESE,112,3.0,7.0,63,0.00,,,0.00,Rainwise IP-100,2013-04-15 14:13:00,
2013-04-15 10:18:00,52.3,38.0,29.09,East,90,4.0,6.0,60,0.00,,,0.00,Rainwise IP-100,2013-04-15 14:18:00,
2013-04-15 10:23:00,52.2,39.0,29.09,ESE,112,8.0,9.0,61,0.00,,,0.00,Rainwise IP-100,2013-04-15 14:23:00,
2013-04-15 10:28:00,52.7,40.0,29.09,East,90,4.0,8.0,62,0.00,,,0.00,Rainwise IP-100,2013-04-15 14:28:00,
2013-04-15 10:33:00,52.9,40.0,29.09,ESE,112,4.0,11.0,62,0.00,,,0.00,Rainwise IP-100,2013-04-15 14:33:00,
2013-04-15 10:38:00,53.4,41.0,29.09,East,90,3.0,9.0,63,0.00,,,0.00,Rainwise IP-100,2013-04-15 14:38:00,
2013-04-15 10:44:00,53.7,40.0,29.09,East,90,3.0,8.0,61,0.00,,,0.00,Rainwise IP-100,2013-04-15 14:44:00,
2013-04-15 10:49:00,54.5,41.0,29.09,East,90,4.0,7.0,61,0.00,,,0.00,Rainwise IP-100,2013-04-15 14:49:00,
2013-04-15 10:55:00,55.3,43.0,29.09,ENE,67,4.0,7.0,63,0.00,,,0.00,Rainwise IP-100,2013-04-15 14:55:00,
2013-04-15 11:00:00,55.7,41.0,29.09,ESE,112,3.0,7.0,57,0.00,,,0.00,Rainwise IP-100,2013-04-15 15:00:00,
2013-04-15 11:05:00,56.2,39.0,29.09,East,90,2.0,7.0,54,0.00,,,0.00,Rainwise IP-100,2013-04-15 15:05:00,
2013-04-15 11:10:00,56.8,42.0,29.10,ENE,67,1.0,6.0,58,0.00,,,0.00,Rainwise IP-100,2013-04-15 15:10:00,
2013-04-15 11:15:00,57.2,44.0,29.09,ENE,67,2.0,9.0,61,0.00,,,0.00,Rainwise IP-100,2013-04-15 15:15:00,
2013-04-15 11:20:00,57.8,41.0,29.10,East,90,2.0,6.0,54,0.00,,,0.00,Rainwise IP-100,2013-04-15 15:20:00,
2013-04-15 11:25:00,58.6,44.0,29.10,ESE,112,2.0,7.0,58,0.00,,,0.00,Rainwise IP-100,2013-04-15 15:25:00,
2013-04-15 11:30:00,58.9,43.0,29.10,ESE,112,4.0,8.0,56,0.00,,,0.00,Rainwise IP-100,2013-04-15 15:30:00,
2013-04-15 11:35:00,59.4,43.0,29.10,ESE,112,3.0,6.0,54,0.00,,,0.00,Rainwise IP-100,2013-04-15 15:35:00,
2013-04-15 11:40:00,60.2,44.0,29.10,ESE,112,2.0,5.0,56,0.00,,,0.00,Rainwise IP-100,2013-04-15 15:40:00,
2013-04-15 11:46:00,61.5,45.0,29.10,SE,135,2.0,4.0,54,0.00,,,0.00,Rainwise IP-100,2013-04-15 15:46:00,
2013-04-15 11:51:00,62.1,45.0,29.11,ENE,67,0.0,5.0,54,0.00,,,0.00,Rainwise IP-100,2013-04-15 15:51:00,
2013-04-15 11:56:00,62.6,44.0,29.10,SE,135,2.0,5.0,51,0.00,,,0.00,Rainwise IP-100,2013-04-15 15:56:00,
2013-04-15 12:02:00,63.6,48.0,29.11,ENE,67,1.0,4.0,57,0.00,,,0.00,Rainwise IP-100,2013-04-15 16:02:00,
2013-04-15 12:08:00,64.1,43.0,29.11,ESE,112,4.0,6.0,47,0.00,,,0.00,Rainwise IP-100,2013-04-15 16:08:00,
2013-04-15 12:13:00,64.3,43.0,29.11,North,360,2.0,4.0,46,0.00,,,0.00,Rainwise IP-100,2013-04-15 16:13:00,
2013-04-15 12:18:00,65.0,43.0,29.11,NW,315,2.0,3.0,45,0.00,,,0.00,Rainwise IP-100,2013-04-15 16:18:00,
2013-04-15 12:23:00,65.9,44.0,29.11,NE,45,1.0,5.0,45,0.00,,,0.00,Rainwise IP-100,2013-04-15 16:23:00,
2013-04-15 12:28:00,66.5,44.0,29.11,West,270,2.0,3.0,44,0.00,,,0.00,Rainwise IP-100,2013-04-15 16:28:00,
2013-04-15 12:33:00,65.8,44.0,29.11,West,270,2.0,4.0,46,0.00,,,0.00,Rainwise IP-100,2013-04-15 16:33:00,
2013-04-15 12:38:00,66.4,44.0,29.11,NE,45,2.0,3.0,45,0.00,,,0.00,Rainwise IP-100,2013-04-15 16:38:00,
2013-04-15 12:44:00,66.7,45.0,29.11,ESE,112,2.0,4.0,45,0.00,,,0.00,Rainwise IP-100,2013-04-15 16:44:00,
2013-04-15 12:49:00,67.7,47.5,29.11,SSE,157,5.0,7.0,48,0.00,,,0.00,Rainwise IP-100,2013-04-15 16:49:00,
2013-04-15 12:54:00,68.1,45.0,29.11,SW,225,1.0,8.0,44,0.00,,,0.00,Rainwise IP-100,2013-04-15 16:54:00,
2013-04-15 12:59:00,68.4,47.5,29.11,NW,315,2.0,7.0,47,0.00,,,0.00,Rainwise IP-100,2013-04-15 16:59:00,
2013-04-15 13:04:00,68.7,47.0,29.11,SSE,157,1.0,9.0,46,0.00,,,0.00,Rainwise IP-100,2013-04-15 17:04:00,
2013-04-15 13:09:00,69.7,45.0,29.11,SW,225,12.0,12.0,41,0.00,,,0.00,Rainwise IP-100,2013-04-15 17:09:00,
2013-04-15 13:14:00,69.9,47.0,29.11,SW,225,7.0,18.0,43,0.00,,,0.00,Rainwise IP-100,2013-04-15 17:14:00,
2013-04-15 13:19:00,69.8,45.0,29.11,WSW,247,7.0,11.0,41,0.00,,,0.00,Rainwise IP-100,2013-04-15 17:19:00,
2013-04-15 13:21:00,69.8,44.0,29.11,WSW,247,9.0,16.0,40,0.00,,,0.00,Rainwise IP-100,2013-04-15 17:21:00,
2013-04-15 13:22:00,69.6,45.0,29.11,SW,225,9.0,16.0,41,0.00,,,0.00,Rainwise IP-100,2013-04-15 17:22:00,
2013-04-15 13:23:00,69.6,46.0,29.11,WSW,247,12.0,16.0,42,0.00,,,0.00,Rainwise IP-100,2013-04-15 17:23:00,
2013-04-15 13:24:00,69.5,44.0,29.11,SW,225,13.0,16.0,40,0.00,,,0.00,Rainwise IP-100,2013-04-15 17:24:00,
2013-04-15 13:26:00,69.6,45.0,29.11,SW,225,10.0,14.0,41,0.00,,,0.00,Rainwise IP-100,2013-04-15 17:26:00,
2013-04-15 13:31:00,69.8,46.0,29.11,West,270,6.0,14.0,42,0.00,,,0.00,Rainwise IP-100,2013-04-15 17:31:00,
2013-04-15 13:38:00,69.7,44.0,29.12,WSW,247,9.0,17.0,40,0.00,,,0.00,Rainwise IP-100,2013-04-15 17:38:00,
2013-04-15 13:43:00,70.1,47.5,29.12,West,270,9.0,15.0,44,0.00,,,0.00,Rainwise IP-100,2013-04-15 17:43:00,
2013-04-15 13:48:00,69.8,45.0,29.13,West,270,12.0,16.0,41,0.00,,,0.00,Rainwise IP-100,2013-04-15 17:48:00,
2013-04-15 13:53:00,69.6,46.0,29.13,WSW,247,7.0,15.0,43,0.00,,,0.00,Rainwise IP-100,2013-04-15 17:53:00,
2013-04-15 13:58:00,69.4,46.0,29.13,WSW,247,5.0,19.0,43,0.00,,,0.00,Rainwise IP-100,2013-04-15 17:58:00,
2013-04-15 14:03:00,69.5,46.0,29.13,WSW,247,6.0,18.0,42,0.00,,,0.00,Rainwise IP-100,2013-04-15 18:03:00,
2013-04-15 14:08:00,69.8,45.0,29.12,WSW,247,11.0,19.0,41,0.00,,,0.00,Rainwise IP-100,2013-04-15 18:08:00,
2013-04-15 14:13:00,69.9,45.0,29.12,WSW,247,4.0,17.0,40,0.00,,,0.00,Rainwise IP-100,2013-04-15 18:13:00,
2013-04-15 14:18:00,70.5,48.0,29.12,WSW,247,5.0,10.0,45,0.00,,,0.00,Rainwise IP-100,2013-04-15 18:18:00,
2013-04-15 14:23:00,71.3,47.5,29.13,SW,225,7.0,13.0,43,0.00,,,0.00,Rainwise IP-100,2013-04-15 18:23:00,
2013-04-15 14:28:00,71.0,47.5,29.13,West,270,6.0,12.0,43,0.00,,,0.00,Rainwise IP-100,2013-04-15 18:28:00,
2013-04-15 14:29:00,70.6,46.0,29.13,West,270,11.0,17.0,41,0.00,,,0.00,Rainwise IP-100,2013-04-15 18:29:00,
2013-04-15 14:33:00,70.3,47.0,29.13,West,270,10.0,17.0,42,0.00,,,0.00,Rainwise IP-100,2013-04-15 18:33:00,
2013-04-15 14:34:00,70.1,45.0,29.13,SW,225,6.0,13.0,41,0.00,,,0.00,Rainwise IP-100,2013-04-15 18:34:00,
2013-04-15 14:38:00,69.9,45.0,29.13,WSW,247,13.0,14.0,41,0.00,,,0.00,Rainwise IP-100,2013-04-15 18:38:00,
2013-04-15 14:39:00,69.8,44.0,29.13,West,270,9.0,14.0,40,0.00,,,0.00,Rainwise IP-100,2013-04-15 18:39:00,
2013-04-15 14:45:00,69.7,45.0,29.13,NNW,337,3.0,16.0,41,0.00,,,0.00,Rainwise IP-100,2013-04-15 18:45:00,
2013-04-15 14:50:00,68.4,48.0,29.13,North,360,7.0,12.0,48,0.00,,,0.00,Rainwise IP-100,2013-04-15 18:50:00,
2013-04-15 14:55:00,67.2,47.5,29.12,NNW,337,2.0,12.0,49,0.00,,,0.00,Rainwise IP-100,2013-04-15 18:55:00,
2013-04-15 15:00:00,66.5,46.0,29.12,North,360,5.0,9.0,47,0.00,,,0.00,Rainwise IP-100,2013-04-15 19:00:00,
2013-04-15 15:05:00,66.4,47.5,29.11,North,360,4.0,12.0,51,0.00,,,0.00,Rainwise IP-100,2013-04-15 19:05:00,
2013-04-15 15:10:00,66.5,45.0,29.11,NE,45,9.0,10.0,46,0.00,,,0.00,Rainwise IP-100,2013-04-15 19:10:00,
2013-04-15 15:15:00,66.5,47.0,29.10,NNE,22,5.0,11.0,49,0.00,,,0.00,Rainwise IP-100,2013-04-15 19:15:00,
2013-04-15 15:20:00,66.7,46.0,29.10,North,360,7.0,12.0,47,0.00,,,0.00,Rainwise IP-100,2013-04-15 19:20:00,
2013-04-15 15:25:00,66.7,44.0,29.10,North,360,8.0,11.0,44,0.00,,,0.00,Rainwise IP-100,2013-04-15 19:25:00,
2013-04-15 15:30:00,66.1,44.0,29.10,NNE,22,5.0,13.0,45,0.00,,,0.00,Rainwise IP-100,2013-04-15 19:30:00,
2013-04-15 15:35:00,66.6,45.0,29.10,North,360,8.0,11.0,46,0.00,,,0.00,Rainwise IP-100,2013-04-15 19:35:00,
2013-04-15 15:40:00,67.4,44.0,29.10,North,360,5.0,10.0,42,0.00,,,0.00,Rainwise IP-100,2013-04-15 19:40:00,
2013-04-15 15:47:00,67.8,45.0,29.09,NE,45,6.0,11.0,44,0.00,,,0.00,Rainwise IP-100,2013-04-15 19:47:00,
2013-04-15 15:54:00,66.9,46.0,29.09,North,360,6.0,9.0,46,0.00,,,0.00,Rainwise IP-100,2013-04-15 19:54:00,
2013-04-15 15:58:00,67.1,43.0,29.09,NE,45,4.0,8.0,42,0.00,,,0.00,Rainwise IP-100,2013-04-15 19:58:00,
2013-04-15 16:03:00,66.8,46.0,29.09,ENE,67,2.0,7.0,47,0.00,,,0.00,Rainwise IP-100,2013-04-15 20:03:00,
2013-04-15 16:04:00,66.9,47.0,29.09,NE,45,4.0,7.0,48,0.00,,,0.00,Rainwise IP-100,2013-04-15 20:04:00,
2013-04-15 16:05:00,66.7,47.0,29.09,NE,45,6.0,7.0,49,0.00,,,0.00,Rainwise IP-100,2013-04-15 20:05:00,
2013-04-15 16:07:00,66.9,46.0,29.09,NE,45,3.0,7.0,47,0.00,,,0.00,Rainwise IP-100,2013-04-15 20:07:00,
2013-04-15 16:08:00,66.9,47.0,29.09,NE,45,2.0,7.0,48,0.00,,,0.00,Rainwise IP-100,2013-04-15 20:08:00,
2013-04-15 16:13:00,66.4,47.0,29.09,NE,45,6.0,7.0,49,0.00,,,0.00,Rainwise IP-100,2013-04-15 20:13:00,
2013-04-15 16:18:00,65.9,44.0,29.09,ESE,112,1.0,7.0,46,0.00,,,0.00,Rainwise IP-100,2013-04-15 20:18:00,
2013-04-15 16:23:00,65.9,46.0,29.08,NE,45,4.0,7.0,48,0.00,,,0.00,Rainwise IP-100,2013-04-15 20:23:00,
2013-04-15 16:28:00,65.8,46.0,29.08,ENE,67,1.0,6.0,49,0.00,,,0.00,Rainwise IP-100,2013-04-15 20:28:00,
2013-04-15 16:33:00,66.1,46.0,29.07,NE,45,3.0,5.0,49,0.00,,,0.00,Rainwise IP-100,2013-04-15 20:33:00,
2013-04-15 16:38:00,66.3,45.0,29.07,NE,45,4.0,7.0,46,0.00,,,0.00,Rainwise IP-100,2013-04-15 20:38:00,
2013-04-15 16:43:00,66.6,47.5,29.07,NE,45,2.0,6.0,50,0.00,,,0.00,Rainwise IP-100,2013-04-15 20:43:00,
2013-04-15 16:49:00,66.9,45.0,29.07,NE,45,1.0,4.0,45,0.00,,,0.00,Rainwise IP-100,2013-04-15 20:49:00,
2013-04-15 16:54:00,67.3,46.0,29.07,NNE,22,2.0,6.0,45,0.00,,,0.00,Rainwise IP-100,2013-04-15 20:54:00,
2013-04-15 16:59:00,67.6,46.0,29.07,East,90,2.0,6.0,45,0.00,,,0.00,Rainwise IP-100,2013-04-15 20:59:00,
2013-04-15 17:04:00,67.3,46.0,29.07,East,90,2.0,4.0,45,0.00,,,0.00,Rainwise IP-100,2013-04-15 21:04:00,
2013-04-15 17:09:00,67.3,46.0,29.07,East,90,3.0,6.0,46,0.00,,,0.00,Rainwise IP-100,2013-04-15 21:09:00,
2013-04-15 17:14:00,67.4,46.0,29.06,ENE,67,6.0,8.0,46,0.00,,,0.00,Rainwise IP-100,2013-04-15 21:14:00,
2013-04-15 17:19:00,67.2,46.0,29.06,NE,45,6.0,7.0,46,0.00,,,0.00,Rainwise IP-100,2013-04-15 21:19:00,
2013-04-15 17:24:00,67.2,46.0,29.06,ENE,67,2.0,9.0,47,0.00,,,0.00,Rainwise IP-100,2013-04-15 21:24:00,
2013-04-15 17:29:00,67.2,47.5,29.06,NE,45,6.0,7.0,49,0.00,,,0.00,Rainwise IP-100,2013-04-15 21:29:00,
2013-04-15 17:34:00,67.3,46.0,29.06,NE,45,5.0,8.0,46,0.00,,,0.00,Rainwise IP-100,2013-04-15 21:34:00,
2013-04-15 17:39:00,67.4,47.0,29.05,ENE,67,4.0,7.0,47,0.00,,,0.00,Rainwise IP-100,2013-04-15 21:39:00,
2013-04-15 17:44:00,66.8,46.0,29.05,NE,45,3.0,7.0,47,0.00,,,0.00,Rainwise IP-100,2013-04-15 21:44:00,
2013-04-15 17:50:00,66.5,47.0,29.05,NE,45,4.0,8.0,49,0.00,,,0.00,Rainwise IP-100,2013-04-15 21:50:00,
2013-04-15 17:55:00,66.4,46.0,29.04,East,90,2.0,7.0,48,0.00,,,0.00,Rainwise IP-100,2013-04-15 21:55:00,
2013-04-15 18:00:00,66.1,46.0,29.04,NE,45,3.0,8.0,48,0.00,,,0.00,Rainwise IP-100,2013-04-15 22:00:00,
2013-04-15 18:05:00,65.9,46.0,29.04,NE,45,3.0,6.0,49,0.00,,,0.00,Rainwise IP-100,2013-04-15 22:05:00,
2013-04-15 18:10:00,65.7,45.0,29.03,NE,45,2.0,5.0,48,0.00,,,0.00,Rainwise IP-100,2013-04-15 22:10:00,
2013-04-15 18:15:00,65.7,45.0,29.03,NNE,22,3.0,6.0,48,0.00,,,0.00,Rainwise IP-100,2013-04-15 22:15:00,
2013-04-15 18:20:00,65.6,46.0,29.03,NE,45,2.0,6.0,49,0.00,,,0.00,Rainwise IP-100,2013-04-15 22:20:00,
2013-04-15 18:25:00,65.4,47.0,29.04,NE,45,1.0,4.0,51,0.00,,,0.00,Rainwise IP-100,2013-04-15 22:25:00,
2013-04-15 18:30:00,65.2,47.0,29.04,NE,45,2.0,5.0,51,0.00,,,0.00,Rainwise IP-100,2013-04-15 22:30:00,
2013-04-15 18:35:00,65.0,47.0,29.04,NNE,22,2.0,3.0,51,0.00,,,0.00,Rainwise IP-100,2013-04-15 22:35:00,
2013-04-15 18:40:00,64.9,47.0,29.04,NNE,22,1.0,2.0,51,0.00,,,0.00,Rainwise IP-100,2013-04-15 22:40:00,
2013-04-15 18:45:00,64.9,47.0,29.04,ENE,67,2.0,3.0,51,0.00,,,0.00,Rainwise IP-100,2013-04-15 22:45:00,
2013-04-15 18:51:00,64.7,47.5,29.04,NE,45,0.0,2.0,54,0.00,,,0.00,Rainwise IP-100,2013-04-15 22:51:00,
2013-04-15 18:56:00,64.7,46.0,29.04,South,180,2.0,3.0,51,0.00,,,0.00,Rainwise IP-100,2013-04-15 22:56:00,
2013-04-15 19:01:00,64.7,46.0,29.04,East,90,4.0,6.0,51,0.00,,,0.00,Rainwise IP-100,2013-04-15 23:01:00,
2013-04-15 19:06:00,64.8,47.0,29.04,East,90,2.0,4.0,51,0.00,,,0.00,Rainwise IP-100,2013-04-15 23:06:00,
2013-04-15 19:11:00,64.7,46.0,29.04,ENE,67,1.0,2.0,51,0.00,,,0.00,Rainwise IP-100,2013-04-15 23:11:00,
2013-04-15 19:16:00,64.7,46.0,29.03,ESE,112,2.0,3.0,51,0.00,,,0.00,Rainwise IP-100,2013-04-15 23:16:00,
2013-04-15 19:21:00,64.7,47.0,29.03,East,90,2.0,3.0,52,0.00,,,0.00,Rainwise IP-100,2013-04-15 23:21:00,
2013-04-15 19:26:00,64.7,47.0,29.03,SSE,157,1.0,6.0,52,0.00,,,0.00,Rainwise IP-100,2013-04-15 23:26:00,
2013-04-15 19:31:00,64.5,47.0,29.03,South,180,4.0,4.0,52,0.00,,,0.00,Rainwise IP-100,2013-04-15 23:31:00,
2013-04-15 19:36:00,64.2,47.0,29.03,South,180,9.0,9.0,53,0.00,,,0.00,Rainwise IP-100,2013-04-15 23:36:00,
2013-04-15 19:41:00,65.2,46.0,29.03,SSW,202,14.0,21.0,50,0.00,,,0.00,Rainwise IP-100,2013-04-15 23:41:00,
2013-04-15 19:46:00,65.9,46.0,29.03,SSW,202,13.0,18.0,49,0.00,,,0.00,Rainwise IP-100,2013-04-15 23:46:00,
2013-04-15 19:53:00,65.9,46.0,29.04,South,180,11.0,22.0,49,0.00,,,0.00,Rainwise IP-100,2013-04-15 23:53:00,
2013-04-15 19:58:00,65.9,47.0,29.04,SSW,202,12.0,16.0,50,0.00,,,0.00,Rainwise IP-100,2013-04-15 23:58:00,
2013-04-15 20:03:00,65.7,47.0,29.05,SSW,202,14.0,17.0,51,0.00,,,0.00,Rainwise IP-100,2013-04-16 00:03:00,
2013-04-15 20:08:00,65.4,47.0,29.05,South,180,10.0,17.0,51,0.00,,,0.00,Rainwise IP-100,2013-04-16 00:08:00,
2013-04-15 20:13:00,65.3,47.0,29.05,South,180,13.0,18.0,50,0.00,,,0.00,Rainwise IP-100,2013-04-16 00:13:00,
2013-04-15 20:18:00,65.1,47.0,29.05,SSW,202,6.0,19.0,52,0.00,,,0.00,Rainwise IP-100,2013-04-16 00:18:00,
2013-04-15 20:23:00,64.8,47.0,29.05,South,180,7.0,14.0,51,0.00,,,0.00,Rainwise IP-100,2013-04-16 00:23:00,
2013-04-15 20:28:00,64.6,47.0,29.05,South,180,8.0,14.0,52,0.00,,,0.00,Rainwise IP-100,2013-04-16 00:28:00,
2013-04-15 20:33:00,64.4,47.0,29.05,South,180,4.0,14.0,53,0.00,,,0.00,Rainwise IP-100,2013-04-16 00:33:00,
2013-04-15 20:38:00,64.2,47.0,29.05,South,180,6.0,14.0,53,0.00,,,0.00,Rainwise IP-100,2013-04-16 00:38:00,
2013-04-15 20:43:00,63.9,47.0,29.05,South,180,5.0,12.0,53,0.00,,,0.00,Rainwise IP-100,2013-04-16 00:43:00,
2013-04-15 20:48:00,63.7,47.0,29.05,South,180,4.0,7.0,54,0.00,,,0.00,Rainwise IP-100,2013-04-16 00:48:00,
2013-04-15 20:54:00,63.1,47.0,29.05,South,180,4.0,7.0,55,0.00,,,0.00,Rainwise IP-100,2013-04-16 00:54:00,
2013-04-15 20:59:00,62.8,47.0,29.05,South,180,4.0,7.0,56,0.00,,,0.00,Rainwise IP-100,2013-04-16 00:59:00,
2013-04-15 21:04:00,62.3,47.0,29.05,South,180,2.0,8.0,57,0.00,,,0.00,Rainwise IP-100,2013-04-16 01:04:00,
2013-04-15 21:09:00,61.9,47.0,29.05,South,180,5.0,7.0,57,0.00,,,0.00,Rainwise IP-100,2013-04-16 01:09:00,
2013-04-15 21:14:00,61.8,47.5,29.05,South,180,6.0,11.0,59,0.00,,,0.00,Rainwise IP-100,2013-04-16 01:14:00,
2013-04-15 21:19:00,61.8,47.5,29.05,South,180,4.0,7.0,59,0.00,,,0.00,Rainwise IP-100,2013-04-16 01:19:00,
2013-04-15 21:24:00,61.6,47.0,29.05,South,180,6.0,9.0,59,0.00,,,0.00,Rainwise IP-100,2013-04-16 01:24:00,
2013-04-15 21:29:00,61.6,47.0,29.05,SSE,157,4.0,8.0,59,0.00,,,0.00,Rainwise IP-100,2013-04-16 01:29:00,
2013-04-15 21:34:00,61.4,47.0,29.05,SSE,157,3.0,7.0,59,0.00,,,0.00,Rainwise IP-100,2013-04-16 01:34:00,
2013-04-15 21:39:00,61.1,47.0,29.05,SSE,157,4.0,7.0,60,0.00,,,0.00,Rainwise IP-100,2013-04-16 01:39:00,
2013-04-15 21:44:00,60.9,47.5,29.05,South,180,10.0,13.0,61,0.00,,,0.00,Rainwise IP-100,2013-04-16 01:44:00,
2013-04-15 21:49:00,61.2,47.0,29.05,South,180,7.0,12.0,60,0.00,,,0.00,Rainwise IP-100,2013-04-16 01:49:00,
2013-04-15 21:55:00,61.2,47.5,29.05,South,180,8.0,11.0,61,0.00,,,0.00,Rainwise IP-100,2013-04-16 01:55:00,
2013-04-15 22:00:00,61.3,47.5,29.05,SSW,202,9.0,12.0,60,0.00,,,0.00,Rainwise IP-100,2013-04-16 02:00:00,
2013-04-15 22:05:00,61.2,47.5,29.06,SSW,202,9.0,11.0,61,0.00,,,0.00,Rainwise IP-100,2013-04-16 02:05:00,
2013-04-15 22:10:00,61.3,48.0,29.06,South,180,6.0,11.0,62,0.00,,,0.00,Rainwise IP-100,2013-04-16 02:10:00,
2013-04-15 22:15:00,61.3,48.0,29.06,South,180,7.0,11.0,61,0.00,,,0.00,Rainwise IP-100,2013-04-16 02:15:00,
2013-04-15 22:20:00,61.2,47.5,29.06,SSW,202,9.0,12.0,62,0.00,,,0.00,Rainwise IP-100,2013-04-16 02:20:00,
2013-04-15 22:25:00,61.2,47.5,29.06,South,180,10.0,13.0,61,0.00,,,0.00,Rainwise IP-100,2013-04-16 02:25:00,
2013-04-15 22:30:00,61.1,47.5,29.06,SSW,202,10.0,13.0,61,0.00,,,0.00,Rainwise IP-100,2013-04-16 02:30:00,
2013-04-15 22:35:00,61.1,48.0,29.06,South,180,5.0,14.0,63,0.00,,,0.00,Rainwise IP-100,2013-04-16 02:35:00,
2013-04-15 22:40:00,60.8,48.0,29.06,South,180,6.0,8.0,63,0.00,,,0.00,Rainwise IP-100,2013-04-16 02:40:00,
2013-04-15 22:45:00,60.6,47.5,29.05,South,180,4.0,9.0,63,0.00,,,0.00,Rainwise IP-100,2013-04-16 02:45:00,
2013-04-15 22:50:00,60.5,47.5,29.05,South,180,2.0,9.0,63,0.00,,,0.00,Rainwise IP-100,2013-04-16 02:50:00,
2013-04-15 22:56:00,60.3,48.0,29.05,South,180,5.0,9.0,64,0.00,,,0.00,Rainwise IP-100,2013-04-16 02:56:00,
2013-04-15 23:01:00,60.1,47.5,29.05,SSW,202,8.0,9.0,64,0.00,,,0.00,Rainwise IP-100,2013-04-16 03:01:00,
2013-04-15 23:06:00,59.9,47.5,29.05,South,180,4.0,10.0,64,0.00,,,0.00,Rainwise IP-100,2013-04-16 03:06:00,
2013-04-15 23:12:00,60.2,47.5,29.05,SSE,157,7.0,12.0,64,0.00,,,0.00,Rainwise IP-100,2013-04-16 03:12:00,
2013-04-15 23:17:00,60.3,47.5,29.05,South,180,7.0,12.0,63,0.00,,,0.00,Rainwise IP-100,2013-04-16 03:17:00,
2013-04-15 23:22:00,60.3,48.0,29.05,South,180,4.0,9.0,64,0.00,,,0.00,Rainwise IP-100,2013-04-16 03:22:00,
2013-04-15 23:27:00,60.3,48.0,29.05,South,180,7.0,9.0,64,0.00,,,0.00,Rainwise IP-100,2013-04-16 03:27:00,
2013-04-15 23:32:00,60.3,48.0,29.05,South,180,4.0,10.0,64,0.00,,,0.00,Rainwise IP-100,2013-04-16 03:32:00,
2013-04-15 23:37:00,60.3,47.5,29.05,South,180,4.0,9.0,63,0.00,,,0.00,Rainwise IP-100,2013-04-16 03:37:00,
2013-04-15 23:42:00,60.4,47.5,29.05,South,180,6.0,11.0,63,0.00,,,0.00,Rainwise IP-100,2013-04-16 03:42:00,
2013-04-15 23:47:00,60.5,47.5,29.05,South,180,3.0,9.0,62,0.00,,,0.00,Rainwise IP-100,2013-04-16 03:47:00,
2013-04-15 23:52:00,60.5,47.5,29.05,South,180,7.0,8.0,62,0.00,,,0.00,Rainwise IP-100,2013-04-16 03:52:00,
2013-04-15 23:58:00,60.5,47.5,29.05,SSW,202,7.0,7.0,63,0.00,,,0.00,Rainwise IP-100,2013-04-16 03:58:00,